Regional Weather Roundup
Issued by NWS Upton, NY

Current Version | Previous Version | Text Only | Print | Product List | Glossary Off
Versions: 1 2 3 4 5 6 7 8 9 10 11 12 13 14 15 16 17 18 19 20 21 22 23 24 25 26 27 28 29 30 31 32 33 34 35 36 37 38 39 40 41 42 43 44 45 46 47 48 49 50
000 ASUS41 KOKX 300805 RWROKX REGIONAL WEATHER ROUNDUP NATIONAL WEATHER SERVICE NEW YORK NY 300 AM EST FRI JAN 30 2015 NOTE: "FAIR" INDICATES FEW OR NO CLOUDS BELOW 12,000 FEET WITH NO SIGNIFICANT WEATHER AND/OR OBSTRUCTIONS TO VISIBILITY. NYZ071-072-176-178-NJZ106-104-300900- NEW YORK CITY METRO AREA CITY SKY/WX TMP DP RH WIND PRES REMARKS CENTRAL PARK CLOUDY 34 29 82 S5 29.92F HAZE WCI 30 LAGUARDIA APRT LGT SNOW 33 29 85 S5 29.90F FOG WCI 29 KENNEDY INTL FLURRIES 34 31 88 SE3 29.92F NEWARK/LIBERTY FLURRIES 32 30 92 W8 29.90F WCI 25 BRNX BOT. GARD N/A 32 32 100 CALM 29.92R TETERBORO LGT SNOW 31 29 92 CALM 29.90F FOG $$ NYZ177-179-078>081-300900- LONG ISLAND NEW YORK CITY SKY/WX TMP DP RH WIND PRES REMARKS FARMINGDALE CLOUDY 34 32 92 CALM 29.91F ISLIP MIX PCPN 34 31 88 CALM 29.90F SHIRLEY CLOUDY 35 31 85 CALM 29.93F WESTHAMPTON LGT RAIN 36 30 79 CALM 29.94F MONTAUK POINT N/A 39 34 82 W6 29.94F WCI 35 $$ NYZ052-065-067-300900- HUDSON VALLEY CITY SKY/WX TMP DP RH WIND PRES REMARKS WHITE PLAINS LGT SNOW 30 28 92 S5 29.88F VSB 1 WCI 25 NEWBURGH LGT SNOW 27 27 100 CALM 29.89F FOG MONTGOMERY LGT SNOW 26 24 92 N3 29.87F VSB 1 POUGHKEEPSIE LGT SNOW 31 27 85 S3 29.89F FOG ALBANY LGT SNOW 28 23 81 S14 29.86F WCI 17 $$ NJZ001-105-106-008-010-013-015-019>022-104-300900- NEW JERSEY CITY SKY/WX TMP DP RH WIND PRES REMARKS NEWARK/LIBERTY FLURRIES 32 30 92 W8 29.90F WCI 25 TETERBORO LGT SNOW 31 29 92 CALM 29.90F FOG CALDWELL LGT SNOW 29 28 96 CALM 29.90F FOG MORRISTOWN FLURRIES 32 28 86 CALM 29.90F SOMERVILLE CLOUDY 30 27 88 NW3 29.88F SUSSEX FLURRIES 26 23 88 CALM 29.87F ANDOVER N/A 27 24 89 CALM 29.87F TRENTON CLOUDY 32 25 75 CALM 29.88F MILLVILLE CLOUDY 37 27 67 CALM 29.89F ATLANTIC CITY CLOUDY 38 29 70 S9 29.89F WCI 31 WRIGHTSTOWN CLOUDY 35 27 74 S6 29.86F WCI 29 TOMS RIVER CLOUDY 36 28 75 S6 29.90F WCI 31 BELMAR CLOUDY 36 27 69 S5 29.89F WCI 32 $$ PAZ047>061-062-071-300900- EASTERN PENNSYLVANIA CITY SKY/WX TMP DP RH WIND PRES REMARKS PHILADELPHIA CLOUDY 35 25 66 S5 29.90F WCI 31 ALLENTOWN CLOUDY 28 24 85 N3 29.88F SCRANTON CLOUDY 27 24 89 SW3 29.84F FOG $$ CTZ002-004>006-009-010-012-RIZ004-006-007-MAZ004-011-015-300900- SOUTHERN NEW ENGLAND IN CT CITY SKY/WX TMP DP RH WIND PRES REMARKS BRADLEY INTL CLOUDY 29 24 82 CALM 29.90F HARTFORD FLURRIES 29 25 85 CALM 29.92F DANBURY LGT SNOW 30 26 85 CALM 29.89F VSB 1 WTRBRY/OXFORD CLOUDY 30 23 74 S7 29.88F WCI 23 BRIDGEPORT LGT SNOW 32 31 96 SW3 29.92F FOG MERIDEN LGT SNOW 29 26 89 CALM 29.92F FOG NEW HAVEN LGT SNOW 33 31 92 CALM 29.91F FOG CHESTER LGT SNOW 34 32 93 SW6 29.91F WCI 29 GROTON LGT RAIN 37 34 89 SW7 29.93F WCI 32 WILLIMANTIC LGT SNOW 29 25 85 VRB3 29.92F FOG IN RI CITY SKY/WX TMP DP RH WIND PRES REMARKS PROVIDENCE LGT SNOW 32 29 88 SE6 29.94F FOG WCI 26 BLOCK ISLAND CLOUDY 37 34 87 W7 29.91F WCI 32 WESTERLY LGT RAIN 36 34 92 SE5 29.93F WCI 32 IN MA CITY SKY/WX TMP DP RH WIND PRES REMARKS BOSTON CLOUDY 30 26 85 SE8 29.96F WCI 22 WORCESTER LGT SNOW 24 24 100 SE5 29.87F FOG WCI 18 WESTFIELD CLOUDY 27 23 85 SE3 29.89F PROVINCETOWN CLOUDY 32 28 86 SE7 29.98F WCI 26 NANTUCKET CLOUDY 36 29 75 SE14 29.97F WCI 27 $$ ANZ330-335-338-340-345-350-353-355-300900- COASTAL MARINE OBSERVATIONS STATION/POSITION TIME SKY/WX TEMP WIND PRES VSBY WAVE AIR SEA DIR/SP/G HT/PER (UTC) (F) (DEG/KT/KT) (MB) (MI) (FT/S) NY HARB ENTRANCE 0800 40 39 200/ 14/ 16 1012.3 3/10 4S FIRE IS 0800 37 N/A 3/ 5 20S FIRE ISLAND 0700 42 1014.4 4/ 5 23SW MTP 0800 N/A 4/ 5 HUDSON CANYON NOT AVBL EXECUTION ROCKS 0700 32 33 210/ 8/ 10 N/A WESTERN LI SOUND 0700 32 200/ 4/ 6 N/A 0 CENTRAL LI SOUND 0700 35 35 220/ 6/ 8 N/A 0 EASTERN LI SOUND NOT AVBL ROBBINS REEF 0700 34 160/ 9/ 10 1011.6 $$ >>>>>>>>>>>>>>>>>>>>>>>>>>>> KEY <<<<<<<<<<<<<<<<<<<<<<<<<<< > < > SKY/WX - SKY CONDITION/PRESENT WEATHER < > TMP - TEMPERATURE IN FAHRENHEIT < > DP - DEWPOINT IN FAHRENHEIT < > RH - RELATIVE HUMIDITY IN PERCENT < > WIND - DIRECTION AND SPEED IN MPH < > PRES - MEAN SEA LEVEL PRESSURE IN INCHES OF HG < > WCI - WIND CHILL INDEX < > VSB - VISIBILITY IN MILES < > HX - HEAT INDEX < > TC - TEMPERATURE IN CELSIUS < > VRB - VARIABLE WIND DIRECTION < > < >>>>>>>>>>>>>>>>>>>>>>>>>>>> KEY <<<<<<<<<<<<<<<<<<<<<<<<<<<

USA.gov is the U.S. government's official web portal to all federal, state and local government web resources and services.